Tracking 19245 objects as of 14-Aug-2018
HD Live streaming from Space Station
objects crossing your sky now

EUTELSAT 1-F4 (ECS 4)

Track EUTELSAT 1-F4 (ECS 4) now!
EUTELSAT 1-F4 (ECS 4) is classified as:


NORAD ID: 18351
Int'l Code: 1987-078B
Perigee: 36,194.7 km
Apogee: 36,293.4 km
Inclination: 15.5 °
Period: 1,459.2 minutes
Semi major axis: 42615 km
RCS: 3.9811 m2 (large)
Launch date: September 16, 1987
Source: European Telecommunications Satellite Organization (EUTE)
Launch site: FRENCH GUIANA (FRGUI)
aabbcc
Your satellite tracking list
Your tracking list is empty




NASA's NSSDC Master Catalog

Two Line Element Set (TLE):
1 18351U 87078B   18224.84869101 -.00000049 +00000-0 +00000-0 0  9996
2 18351 015.4628 005.3965 0011587 323.2140 028.3327 00.98686690098476
Source of the keplerian elements: AFSPC